Location: Newark
(42.8481°N, 0.4872°E)
Time: 01:04:14
(UTC+00:00)

Vanguard 1 - All Passes

Search period start: 27 October 2020 00:00
Search period end: 06 November 2020 00:00
Orbit: 650 x 3833 km, 34.3° (Epoch: 26 October)

Date Brightness Start Highest point End Pass type
(mag) Time Alt. Az. Time Alt. Az. Time Alt. Az.
27 Oct - 09:06:10 10° SSE 09:15:47 15° SE 09:26:00 10° E daylight
27 Oct - 11:18:43 10° SSW 11:38:17 41° SE 11:57:24 10° E daylight
27 Oct - 13:40:27 10° WSW 14:03:26 62° SSE 14:21:07 10° E daylight
27 Oct - 16:06:36 10° W 16:28:37 63° SSW 16:42:13 10° ESE daylight
27 Oct - 18:34:50 10° W 18:50:51 38° SW 19:00:34 10° SSE visible
28 Oct - 09:22:43 10° S 09:36:00 21° SE 09:50:31 10° E daylight
28 Oct - 11:38:37 10° SW 11:59:05 48° SSE 12:18:52 10° E daylight
28 Oct - 14:01:26 10° WSW 14:24:39 65° S 14:42:06 10° E daylight
28 Oct - 16:28:04 10° W 16:49:36 59° SSW 17:02:50 10° ESE daylight
28 Oct - 18:56:45 10° W 19:11:08 31° SW 19:20:18 10° SSE visible
29 Oct - 09:40:53 10° S 09:56:17 28° SE 10:13:29 10° E daylight
29 Oct - 11:58:51 10° SW 12:20:01 54° SSE 12:40:10 10° E daylight
29 Oct - 14:22:34 10° WSW 14:45:54 67° S 15:03:01 10° ESE daylight
29 Oct - 16:49:36 10° W 17:10:27 54° SSW 17:23:18 10° SE visible
29 Oct - 19:19:02 10° W 19:31:14 24° SW 19:39:35 10° S visible
30 Oct - 09:59:52 10° SSW 10:16:41 34° SE 10:35:43 10° E daylight
30 Oct - 12:19:22 10° SW 12:41:06 59° SSE 13:01:22 10° E daylight
30 Oct - 14:43:50 10° W 15:07:08 66° S 15:23:52 10° ESE daylight
30 Oct - 17:11:12 10° W 17:31:09 48° SSW 17:43:35 10° SE visible
30 Oct - 19:42:02 10° W 19:51:12 17° SW 19:58:06 10° SSW visible
31 Oct - 08:07:44 10° SSE 08:15:38 14° ESE 08:24:27 10° E daylight
31 Oct - 10:19:22 10° SSW 10:37:14 41° SE 10:57:31 10° E daylight
31 Oct - 12:40:06 10° WSW 13:02:16 63° SSE 13:22:30 10° E daylight
31 Oct - 15:05:10 10° W 15:28:19 65° S 15:44:38 10° ESE daylight
31 Oct - 17:32:54 10° W 17:51:40 41° SW 18:03:39 10° SSE visible
31 Oct - 20:07:12 10° WSW 20:11:03 11° WSW 20:14:29 10° SW visible
01 Nov - 08:24:10 10° SSE 08:35:41 20° SE 08:49:21 10° E daylight
01 Nov - 10:39:17 10° SW 10:57:55 48° SSE 11:19:05 10° E daylight
01 Nov - 13:01:01 10° WSW 13:23:31 66° S 13:43:34 10° E daylight
01 Nov - 15:26:34 10° W 15:49:24 61° SSW 16:05:17 10° ESE daylight
01 Nov - 17:54:47 10° W 18:12:00 34° SW 18:23:25 10° SSE visible
02 Nov - 08:42:20 10° S 08:55:47 26° SE 09:12:29 10° E daylight
02 Nov - 10:59:30 10° SW 11:18:46 54° SSE 11:40:30 10° E daylight
02 Nov - 13:22:04 10° WSW 13:44:49 68° S 14:04:36 10° ESE daylight
02 Nov - 15:48:01 10° W 16:10:21 56° SSW 16:25:48 10° SE daylight
02 Nov - 18:17:00 10° W 18:32:11 27° SW 18:42:45 10° S visible
03 Nov - 09:01:21 10° SSW 09:16:02 33° SE 09:34:50 10° E daylight
03 Nov - 11:19:58 10° SW 11:39:46 59° SSE 12:01:49 10° E daylight
03 Nov - 13:43:13 10° W 14:06:07 67° S 14:25:32 10° ESE daylight
03 Nov - 16:09:33 10° W 16:31:09 50° SSW 16:46:08 10° SE daylight
03 Nov - 18:39:49 10° W 18:52:12 21° SW 19:01:27 10° S visible
04 Nov - 07:10:40 10° SE 07:15:53 12° ESE 07:21:43 10° ESE daylight
04 Nov - 09:20:52 10° SSW 09:36:26 40° SE 09:56:46 10° E daylight
04 Nov - 11:40:37 10° WSW 12:00:54 64° SSE 12:23:04 10° E daylight
04 Nov - 14:04:26 10° W 14:27:23 66° S 14:46:24 10° ESE daylight
04 Nov - 16:31:10 10° W 16:51:46 44° SW 17:06:13 10° SSE daylight
04 Nov - 19:03:56 10° W 19:12:06 14° WSW 19:18:51 10° SSW visible
05 Nov - 07:26:27 10° SSE 07:35:47 18° SE 07:47:25 10° E daylight
05 Nov - 09:40:46 10° SW 09:57:01 47° SSE 10:18:27 10° E daylight
05 Nov - 12:01:27 10° WSW 12:22:08 67° S 12:44:16 10° E daylight
05 Nov - 14:25:44 10° W 14:48:32 62° SSW 15:07:07 10° ESE daylight
05 Nov - 16:52:59 10° W 17:12:12 37° SW 17:26:00 10° SSE visible
